Simultaneous Nadir Overpasses (SNOs) Predictions

Prediction of SNOs between AQUA and NPP Satellite Orbit:

Table of predicted SNOs for the next 14.0 days since TLE Epoch: 3/24/2018
Index Date (AQUA) Time (AQUA) Lat,Lon (AQUA) SZA (AQUA ) Date (NPP) Time (NPP) Lat,Lon (NPP) SZA (NPP ) Distance(km) Time Diff (sec)
1 03/24/2018 14:55:12 76.50,-163.02 95.38 03/24/2018 14:54:56 76.50,-163.00 95.39 0.74 16
2 03/24/2018 15:44:24 -77.24, 7.32 85.53 03/24/2018 15:45:25 -77.24, 7.29 85.58 0.73 61
3 03/27/2018 06:22:34 -75.61, 142.44 84.66 03/27/2018 06:21:28 -75.60, 142.36 84.58 2.49 66
4 03/27/2018 07:11:35 76.78, -46.17 93.98 03/27/2018 07:11:46 76.78, -46.17 93.97 0.25 11
5 03/29/2018 22:38:55 -75.99,-100.54 86.16 03/29/2018 22:38:16 -75.98,-100.63 86.10 2.65 39
6 03/29/2018 23:27:59 77.00, 70.53 92.64 03/29/2018 23:28:37 77.00, 70.50 92.62 0.69 38
7 04/01/2018 14:55:15 -76.36, 16.51 87.64 04/01/2018 14:55:03 -76.35, 16.43 87.61 2.29 12
8 04/01/2018 15:44:21 77.27,-172.58 91.27 04/01/2018 15:45:26 77.27,-172.61 91.22 0.69 65
9 04/04/2018 06:22:29 75.71, -37.25 92.08 04/04/2018 06:21:27 75.70, -37.32 92.15 2.11 62
10 04/04/2018 07:11:36 -76.72, 133.61 89.11 04/04/2018 07:11:51 -76.71, 133.56 89.11 1.43 15
11 04/06/2018 22:38:49 76.12, 79.90 90.57 04/06/2018 22:38:14 76.12, 79.84 90.61 1.62 35




NCC Satellite Simultaneous Nadir Overpasses (SNOs) Prediction Service
